TimeEDT,TemperatureF,Dew PointF,Humidity,Sea Level PressureIn,VisibilityMPH,Wind Direction,Wind SpeedMPH,Gust SpeedMPH,PrecipitationIn,Events,Conditions,WindDirDegrees,DateUTC
12:15 AM,50.0,48.2,94,29.88,8.0,Calm,Calm,-,N/A,,Overcast,0,2013-03-24 04:15:00
12:35 AM,51.8,48.2,88,29.89,7.0,Calm,Calm,-,N/A,,Overcast,0,2013-03-24 04:35:00
12:55 AM,51.8,48.2,88,29.88,5.0,NNE,3.5,-,N/A,,Overcast,30,2013-03-24 04:55:00
1:15 AM,51.8,48.2,88,29.86,8.0,Calm,Calm,-,N/A,,Overcast,0,2013-03-24 05:15:00
1:35 AM,51.8,50.0,94,29.86,8.0,ENE,3.5,-,N/A,,Overcast,60,2013-03-24 05:35:00
1:55 AM,51.8,50.0,94,29.84,9.0,NE,4.6,-,N/A,,Overcast,40,2013-03-24 05:55:00
2:15 AM,51.8,50.0,94,29.85,10.0,NNE,3.5,-,N/A,,Overcast,20,2013-03-24 06:15:00
2:35 AM,51.8,50.0,94,29.82,4.0,NE,5.8,-,0.01,Rain,Light Rain,50,2013-03-24 06:35:00
2:55 AM,51.8,51.8,100,29.80,3.0,NE,5.8,-,0.02,Rain,Rain,50,2013-03-24 06:55:00
3:15 AM,51.8,51.8,100,29.77,3.0,NE,4.6,-,0.04,,Drizzle,50,2013-03-24 07:15:00
3:35 AM,53.6,51.8,94,29.78,3.0,NE,4.6,-,0.06,Rain,Rain,50,2013-03-24 07:35:00
3:55 AM,53.6,51.8,94,29.77,4.0,East,3.5,-,0.11,Rain,Light Rain,100,2013-03-24 07:55:00
4:15 AM,53.6,53.6,100,29.78,3.0,East,5.8,-,0.03,Rain,Heavy Rain,80,2013-03-24 08:15:00
4:35 AM,53.6,53.6,100,29.74,3.0,ENE,4.6,-,0.13,Rain,Light Rain,60,2013-03-24 08:35:00
4:55 AM,53.6,53.6,100,29.72,5.0,NE,3.5,-,0.13,,Light Drizzle,50,2013-03-24 08:55:00
5:15 AM,53.6,53.6,100,29.67,5.0,East,6.9,16.1,N/A,Rain,Light Rain,100,2013-03-24 09:15:00
5:35 AM,53.6,53.6,100,29.66,3.0,East,6.9,-,0.02,Rain,Light Rain,90,2013-03-24 09:35:00
5:55 AM,55.4,53.6,94,29.68,3.0,East,5.8,-,0.04,Rain,Heavy Rain,90,2013-03-24 09:55:00
6:15 AM,55.4,55.4,100,29.68,2.5,East,6.9,-,0.03,Rain,Rain,100,2013-03-24 10:15:00
6:35 AM,55.4,55.4,100,29.64,1.8,ENE,9.2,16.1,0.12,Rain,Heavy Rain,70,2013-03-24 10:35:00
6:55 AM,55.4,55.4,100,29.65,1.5,North,11.5,18.4,0.22,Rain,Rain,10,2013-03-24 10:55:00
7:15 AM,55.4,55.4,100,29.62,1.5,NE,9.2,17.3,0.27,Rain,Heavy Rain,40,2013-03-24 11:15:00
7:35 AM,55.4,55.4,100,29.65,1.5,NNW,15.0,21.9,0.51,Rain,Heavy Rain,340,2013-03-24 11:35:00
7:55 AM,53.6,53.6,100,29.60,1.5,NE,9.2,24.2,1.10,Rain,Heavy Rain,50,2013-03-24 11:55:00
8:15 AM,53.6,53.6,100,29.61,1.5,NE,6.9,18.4,0.11,Rain,Heavy Rain,50,2013-03-24 12:15:00
8:35 AM,53.6,53.6,100,29.62,1.5,North,9.2,17.3,0.37,Rain,Heavy Rain,10,2013-03-24 12:35:00
8:55 AM,53.6,53.6,100,29.61,1.0,North,11.5,17.3,0.78,Rain,Heavy Rain,10,2013-03-24 12:55:00
9:15 AM,53.6,51.8,94,29.69,0.5,NNW,13.8,18.4,0.41,Rain,Heavy Rain,340,2013-03-24 13:15:00
9:35 AM,51.8,51.8,100,29.65,0.8,NE,6.9,18.4,0.78,Rain,Heavy Rain,50,2013-03-24 13:35:00
9:55 AM,51.8,51.8,100,29.62,1.2,ENE,6.9,18.4,0.98,Rain,Heavy Rain,60,2013-03-24 13:55:00
10:15 AM,51.8,51.8,100,29.63,0.8,NE,5.8,17.3,0.11,Rain,Heavy Rain,50,2013-03-24 14:15:00
10:35 AM,51.8,51.8,100,29.64,0.8,East,5.8,-,0.30,Rain,Heavy Rain,100,2013-03-24 14:35:00
11:15 AM,53.6,53.6,100,29.60,4.0,SE,4.6,-,N/A,Rain,Light Rain,130,2013-03-24 15:15:00
11:35 AM,53.6,53.6,100,29.56,1.8,ESE,12.7,18.4,0.03,Rain,Light Rain,110,2013-03-24 15:35:00
12:15 PM,55.4,55.4,100,29.54,2.0,East,5.8,-,N/A,,Overcast,90,2013-03-24 16:15:00
12:35 PM,57.2,57.2,100,29.53,2.0,SE,4.6,-,N/A,,Overcast,140,2013-03-24 16:35:00
1:15 PM,60.8,60.8,100,29.51,3.0,SE,4.6,-,N/A,,Overcast,130,2013-03-24 17:15:00
1:35 PM,62.6,60.8,94,29.50,3.0,South,5.8,-,N/A,,Overcast,170,2013-03-24 17:35:00
1:55 PM,62.6,60.8,94,29.49,4.0,South,6.9,-,N/A,,Overcast,190,2013-03-24 17:55:00
2:15 PM,64.4,62.6,94,29.47,5.0,SSW,6.9,-,N/A,,Overcast,200,2013-03-24 18:15:00
2:35 PM,64.4,62.6,94,29.45,4.0,SW,12.7,-,N/A,,Overcast,220,2013-03-24 18:35:00
2:55 PM,66.2,64.4,94,29.46,3.0,West,9.2,-,N/A,,Light Drizzle,270,2013-03-24 18:55:00
3:15 PM,64.4,62.6,94,29.47,3.0,WNW,10.4,-,N/A,,Overcast,300,2013-03-24 19:15:00
3:35 PM,62.6,60.8,94,29.48,4.0,WNW,11.5,-,N/A,,Overcast,300,2013-03-24 19:35:00
3:55 PM,62.6,60.8,94,29.48,5.0,WNW,10.4,-,N/A,,Overcast,300,2013-03-24 19:55:00
4:15 PM,62.6,60.8,94,29.47,7.0,NW,9.2,-,N/A,,Overcast,310,2013-03-24 20:15:00
4:35 PM,60.8,57.2,88,29.48,4.0,NNW,15.0,20.7,N/A,,Overcast,330,2013-03-24 20:35:00
4:55 PM,57.2,55.4,94,29.49,3.0,NNW,10.4,-,N/A,,Overcast,330,2013-03-24 20:55:00
5:15 PM,55.4,53.6,94,29.51,4.0,NNW,10.4,-,N/A,,Overcast,330,2013-03-24 21:15:00
5:35 PM,53.6,53.6,100,29.52,5.0,WNW,11.5,-,N/A,,Overcast,300,2013-03-24 21:35:00
5:55 PM,53.6,51.8,94,29.53,6.0,NW,13.8,-,N/A,,Overcast,310,2013-03-24 21:55:00
6:15 PM,53.6,51.8,94,29.54,5.0,NW,12.7,-,N/A,,Overcast,310,2013-03-24 22:15:00
6:35 PM,51.8,51.8,100,29.55,5.0,NW,9.2,-,N/A,,Overcast,310,2013-03-24 22:35:00
6:55 PM,51.8,50.0,94,29.56,2.5,NW,12.7,-,N/A,,Overcast,320,2013-03-24 22:55:00
7:15 PM,51.8,48.2,88,29.57,2.5,NW,13.8,-,N/A,,Overcast,320,2013-03-24 23:15:00
7:35 PM,50.0,48.2,94,29.58,5.0,NNW,10.4,-,N/A,,Overcast,330,2013-03-24 23:35:00
7:55 PM,50.0,48.2,94,29.58,5.0,NW,10.4,-,N/A,,Overcast,320,2013-03-24 23:55:00
8:15 PM,50.0,48.2,94,29.59,5.0,NNW,11.5,-,N/A,,Overcast,330,2013-03-25 00:15:00
8:35 PM,48.2,48.2,100,29.60,7.0,NNW,12.7,17.3,N/A,,Overcast,330,2013-03-25 00:35:00
8:55 PM,48.2,48.2,100,29.60,10.0,NNW,9.2,-,N/A,,Overcast,330,2013-03-25 00:55:00
9:15 PM,48.2,48.2,100,29.61,10.0,NNW,11.5,-,N/A,,Overcast,340,2013-03-25 01:15:00
9:35 PM,48.2,46.4,93,29.62,10.0,NW,13.8,18.4,N/A,,Overcast,320,2013-03-25 01:35:00
9:55 PM,48.2,46.4,93,29.62,10.0,NNW,10.4,19.6,N/A,,Overcast,340,2013-03-25 01:55:00
10:15 PM,48.2,46.4,93,29.61,10.0,NNW,9.2,-,N/A,,Overcast,330,2013-03-25 02:15:00
10:35 PM,48.2,46.4,93,29.59,10.0,North,5.8,-,N/A,,Scattered Clouds,350,2013-03-25 02:35:00
10:55 PM,46.4,46.4,100,29.58,10.0,North,5.8,-,N/A,,Scattered Clouds,360,2013-03-25 02:55:00
11:15 PM,48.2,46.4,93,29.60,10.0,Calm,Calm,-,N/A,,Overcast,0,2013-03-25 03:15:00
11:35 PM,46.4,46.4,100,29.60,10.0,North,3.5,-,N/A,,Overcast,10,2013-03-25 03:35:00
11:55 PM,46.4,46.4,100,29.59,10.0,NNE,3.5,-,N/A,,Overcast,30,2013-03-25 03:55:00